GLD1794 SANT-SCIE

Flight info

Callsign GLD1794
Flight time 2h 29m
Altitude 36000
Route SORTI4A SORTI UW3 KAKAN UM799 LAR UW3 GILSA DCT ASIMO UM799 DILOK/N0458F370 UM799 TBN DCT GELUS UQ809 ARUNI ARUNI6C
Aircraft A319/M-SDE3FGHIRWY/LB1

Departure

Time 2026-05-08 13:03
Airport Teniente Benjamín Matienzo International Airport (SANT)

Arrival

Time 2026-05-08 15:32
Airport Carriel Sur International Airport (SCIE)
Time Latitude Longitude Altitude Speed Heading
2026-05-08 12:51 -26.83614 -65.10765 1473 ft 0 kts 189°
2026-05-08 12:58 -26.83620 -65.10766 1479 ft 2 kts 182°
2026-05-08 12:58 -26.83650 -65.10758 1473 ft 7 kts 164°
2026-05-08 12:58 -26.83708 -65.10737 1472 ft 11 kts 161°
2026-05-08 12:58 -26.83795 -65.10702 1471 ft 15 kts 158°
2026-05-08 12:59 -26.83907 -65.10651 1470 ft 19 kts 158°
2026-05-08 12:59 -26.84042 -65.10599 1471 ft 21 kts 160°
2026-05-08 12:59 -26.84182 -65.10546 1465 ft 22 kts 165°
2026-05-08 12:59 -26.84335 -65.10530 1461 ft 23 kts 182°
2026-05-08 13:00 -26.84496 -65.10555 1461 ft 23 kts 189°
2026-05-08 13:00 -26.84646 -65.10585 1459 ft 22 kts 190°
2026-05-08 13:00 -26.84798 -65.10614 1455 ft 22 kts 189°
2026-05-08 13:00 -26.84950 -65.10643 1451 ft 20 kts 189°
2026-05-08 13:01 -26.85091 -65.10670 1447 ft 21 kts 190°
2026-05-08 13:01 -26.85233 -65.10726 1445 ft 22 kts 214°
2026-05-08 13:01 -26.85357 -65.10737 1442 ft 17 kts 99°
2026-05-08 13:01 -26.85300 -65.10711 1444 ft 8 kts 11°
2026-05-08 13:02 -26.85177 -65.10687 1445 ft 46 kts
2026-05-08 13:02 -26.84643 -65.10585 1459 ft 110 kts
2026-05-08 13:02 -26.83712 -65.10410 1488 ft 158 kts
2026-05-08 13:02 -26.82624 -65.10208 1999 ft 158 kts
2026-05-08 13:03 -26.81533 -65.10019 2610 ft 159 kts 12°
2026-05-08 13:03 -26.80594 -65.09391 3150 ft 162 kts 52°
2026-05-08 13:03 -26.80071 -65.08208 3494 ft 181 kts 66°
2026-05-08 13:03 -26.79530 -65.06840 3750 ft 205 kts 60°
2026-05-08 13:04 -26.78484 -65.05635 4061 ft 230 kts 37°
2026-05-08 13:04 -26.77134 -65.04507 4511 ft 253 kts 37°
2026-05-08 13:04 -26.75699 -65.03298 5243 ft 262 kts 37°
2026-05-08 13:04 -26.74227 -65.02055 6068 ft 267 kts 38°
2026-05-08 13:05 -26.72765 -65.00737 6897 ft 272 kts 40°
2026-05-08 13:05 -26.71316 -64.99357 7716 ft 276 kts 40°
2026-05-08 13:05 -26.69864 -64.97942 8550 ft 278 kts 41°
2026-05-08 13:05 -26.68652 -64.96226 9334 ft 286 kts 60°
2026-05-08 13:06 -26.68026 -64.94091 10090 ft 294 kts 81°
2026-05-08 13:06 -26.67982 -64.92560 10480 ft 304 kts 93°
2026-05-08 13:06 -26.68551 -64.90202 10696 ft 329 kts 117°
2026-05-08 13:06 -26.70010 -64.88140 10886 ft 351 kts 141°
2026-05-08 13:07 -26.72116 -64.86596 11029 ft 373 kts 152°
2026-05-08 13:07 -26.74483 -64.85275 11410 ft 384 kts 158°
2026-05-08 13:07 -26.77005 -64.84217 11987 ft 389 kts 165°
2026-05-08 13:07 -26.79627 -64.83440 12604 ft 391 kts 171°
2026-05-08 13:08 -26.82323 -64.82970 13213 ft 393 kts 178°
2026-05-08 13:08 -26.85053 -64.82832 13787 ft 394 kts 185°
2026-05-08 13:08 -26.87782 -64.83048 14323 ft 393 kts 191°
2026-05-08 13:08 -26.90462 -64.83605 14920 ft 390 kts 198°
2026-05-08 13:09 -26.93051 -64.84474 15542 ft 386 kts 204°
2026-05-08 13:09 -26.95519 -64.85632 16154 ft 383 kts 210°
2026-05-08 13:09 -26.97847 -64.87057 16782 ft 380 kts 216°
2026-05-08 13:09 -27.00012 -64.88738 17407 ft 377 kts 221°
2026-05-08 13:10 -27.01985 -64.90664 18015 ft 375 kts 227°
2026-05-08 13:10 -27.03752 -64.92800 18576 ft 373 kts 232°
2026-05-08 13:10 -27.05310 -64.95116 19061 ft 372 kts 237°
2026-05-08 13:10 -27.06660 -64.97593 19534 ft 372 kts 242°
2026-05-08 13:11 -27.07768 -65.00222 19991 ft 373 kts 248°
2026-05-08 13:11 -27.08618 -65.02973 20445 ft 375 kts 252°
2026-05-08 13:11 -27.09218 -65.05829 20875 ft 377 kts 257°
2026-05-08 13:11 -27.09559 -65.08761 21291 ft 381 kts 262°
2026-05-08 13:12 -27.09626 -65.11712 21694 ft 385 kts 268°
2026-05-08 13:12 -27.09401 -65.14727 22093 ft 391 kts 273°
2026-05-08 13:12 -27.08867 -65.17739 22480 ft 397 kts 279°
2026-05-08 13:12 -27.08223 -65.20745 22846 ft 394 kts 271°
2026-05-08 13:13 -27.08458 -65.23749 23197 ft 386 kts 250°
2026-05-08 13:13 -27.09771 -65.26346 23555 ft 387 kts 229°
2026-05-08 13:13 -27.11961 -65.28128 23872 ft 398 kts 208°
2026-05-08 13:13 -27.14711 -65.28801 24175 ft 416 kts 188°
2026-05-08 13:14 -27.17645 -65.28476 24460 ft 432 kts 176°
2026-05-08 13:14 -27.20595 -65.27727 24749 ft 434 kts 176°
2026-05-08 13:14 -27.23559 -65.27282 25055 ft 426 kts 186°
2026-05-08 13:14 -27.26468 -65.27517 25340 ft 415 kts 197°
2026-05-08 13:15 -27.29252 -65.28337 25636 ft 410 kts 205°
2026-05-08 13:15 -27.31947 -65.29379 25954 ft 410 kts 204°
2026-05-08 13:15 -27.34642 -65.30345 26260 ft 412 kts 203°
2026-05-08 13:15 -27.37390 -65.31265 26582 ft 413 kts 202°
2026-05-08 13:16 -27.40154 -65.32160 26868 ft 414 kts 202°
2026-05-08 13:16 -27.42929 -65.33048 27141 ft 415 kts 202°
2026-05-08 13:16 -27.45717 -65.33945 27406 ft 417 kts 202°
2026-05-08 13:16 -27.48512 -65.34853 27714 ft 417 kts 202°
2026-05-08 13:17 -27.51290 -65.35765 28110 ft 415 kts 203°
2026-05-08 13:17 -27.54055 -65.36682 28568 ft 413 kts 203°
2026-05-08 13:17 -27.56799 -65.37596 29033 ft 410 kts 203°
2026-05-08 13:17 -27.59526 -65.38508 29467 ft 407 kts 204°
2026-05-08 13:18 -27.62235 -65.39415 29892 ft 406 kts 204°
2026-05-08 13:18 -27.64942 -65.40321 30273 ft 404 kts 204°
2026-05-08 13:18 -27.67635 -65.41223 30621 ft 403 kts 204°
2026-05-08 13:18 -27.70316 -65.42118 30978 ft 401 kts 204°
2026-05-08 13:19 -27.72949 -65.43001 31337 ft 399 kts 204°
2026-05-08 13:19 -27.75587 -65.43934 31699 ft 396 kts 205°
2026-05-08 13:19 -27.78208 -65.44897 32064 ft 394 kts 206°
2026-05-08 13:19 -27.80806 -65.45870 32430 ft 392 kts 206°
2026-05-08 13:20 -27.83388 -65.46842 32864 ft 390 kts 206°
2026-05-08 13:20 -27.85952 -65.47804 33278 ft 387 kts 206°
2026-05-08 13:20 -27.88498 -65.48754 33672 ft 384 kts 206°
2026-05-08 13:20 -27.91034 -65.49692 34046 ft 383 kts 206°
2026-05-08 13:21 -27.93563 -65.50622 34364 ft 381 kts 206°
2026-05-08 13:21 -27.96081 -65.51548 34663 ft 380 kts 206°
2026-05-08 13:21 -27.98592 -65.52474 34954 ft 379 kts 206°
2026-05-08 13:21 -28.01097 -65.53399 35223 ft 378 kts 206°
2026-05-08 13:22 -28.03598 -65.54326 35489 ft 378 kts 206°
2026-05-08 13:22 -28.06095 -65.55251 35747 ft 377 kts 206°
2026-05-08 13:22 -28.08584 -65.56173 36001 ft 376 kts 206°
2026-05-08 13:22 -28.11070 -65.57091 36283 ft 375 kts 206°
2026-05-08 13:23 -28.13547 -65.58004 36508 ft 374 kts 206°
2026-05-08 13:23 -28.16020 -65.58917 36699 ft 373 kts 206°
2026-05-08 13:23 -28.18487 -65.59829 36886 ft 373 kts 206°
2026-05-08 13:23 -28.20950 -65.60743 37050 ft 373 kts 206°
2026-05-08 13:24 -28.25892 -65.62586 37096 ft 374 kts 206°
2026-05-08 13:24 -28.30835 -65.64425 37105 ft 374 kts 206°
2026-05-08 13:25 -28.35781 -65.66262 37124 ft 374 kts 206°
2026-05-08 13:25 -28.40694 -65.68092 37173 ft 374 kts 206°
2026-05-08 13:26 -28.45624 -65.69930 37128 ft 372 kts 206°
2026-05-08 13:26 -28.50544 -65.71767 37136 ft 372 kts 206°
2026-05-08 13:27 -28.55471 -65.73617 37140 ft 371 kts 208°
2026-05-08 13:27 -28.59744 -65.76621 37144 ft 357 kts 226°
2026-05-08 13:28 -28.63057 -65.80805 37147 ft 356 kts 230°
2026-05-08 13:28 -28.66324 -65.85037 37147 ft 356 kts 230°
2026-05-08 13:29 -28.69595 -65.89274 37145 ft 356 kts 230°
2026-05-08 13:29 -28.72862 -65.93516 37173 ft 356 kts 230°
2026-05-08 13:30 -28.76117 -65.97759 37161 ft 355 kts 230°
2026-05-08 13:30 -28.79374 -66.02004 37159 ft 355 kts 230°
2026-05-08 13:31 -28.82602 -66.06216 37159 ft 355 kts 230°
2026-05-08 13:31 -28.85845 -66.10460 37155 ft 355 kts 230°
2026-05-08 13:32 -28.89086 -66.14697 37156 ft 354 kts 230°
2026-05-08 13:32 -28.92337 -66.18940 37155 ft 355 kts 230°
2026-05-08 13:33 -28.95583 -66.23184 37154 ft 355 kts 230°
2026-05-08 13:33 -28.98822 -66.27430 37127 ft 354 kts 230°
2026-05-08 13:34 -29.02053 -66.31678 37146 ft 354 kts 230°
2026-05-08 13:34 -29.05282 -66.35933 37150 ft 354 kts 230°
2026-05-08 13:35 -29.08512 -66.40177 37150 ft 354 kts 230°
2026-05-08 13:35 -29.11739 -66.44421 37151 ft 354 kts 230°
2026-05-08 13:36 -29.14967 -66.48677 37157 ft 354 kts 230°
2026-05-08 13:36 -29.18189 -66.52934 37157 ft 354 kts 230°
2026-05-08 13:37 -29.21409 -66.57193 37131 ft 354 kts 230°
2026-05-08 13:37 -29.24627 -66.61458 37141 ft 354 kts 230°
2026-05-08 13:38 -29.27843 -66.65721 37152 ft 354 kts 230°
2026-05-08 13:38 -29.31063 -66.69989 37165 ft 354 kts 230°
2026-05-08 13:39 -29.34284 -66.74258 37169 ft 354 kts 230°
2026-05-08 13:39 -29.37502 -66.78533 37163 ft 354 kts 230°
2026-05-08 13:40 -29.41280 -66.82121 37165 ft 359 kts 217°
2026-05-08 13:40 -29.45489 -66.85157 37174 ft 356 kts 216°
2026-05-08 13:41 -29.49677 -66.88187 37165 ft 355 kts 216°
2026-05-08 13:41 -29.53851 -66.91227 37112 ft 356 kts 216°
2026-05-08 13:42 -29.58032 -66.94271 37122 ft 356 kts 216°
2026-05-08 13:42 -29.62222 -66.97317 37128 ft 356 kts 216°
2026-05-08 13:43 -29.66412 -67.00360 37132 ft 356 kts 216°
2026-05-08 13:43 -29.70596 -67.03413 37140 ft 356 kts 216°
2026-05-08 13:44 -29.74752 -67.06450 37153 ft 354 kts 216°
2026-05-08 13:44 -29.78906 -67.09485 37148 ft 352 kts 216°
2026-05-08 13:45 -29.83048 -67.12517 37150 ft 353 kts 216°
2026-05-08 13:45 -29.87199 -67.15561 37145 ft 353 kts 216°
2026-05-08 13:46 -29.91351 -67.18601 37153 ft 353 kts 216°
2026-05-08 13:46 -29.95501 -67.21640 37154 ft 354 kts 216°
2026-05-08 13:47 -29.99654 -67.24685 37127 ft 354 kts 216°
2026-05-08 13:47 -30.03800 -67.27735 37183 ft 354 kts 216°
2026-05-08 13:48 -30.07962 -67.30801 37177 ft 355 kts 216°
2026-05-08 13:48 -30.12103 -67.33855 37171 ft 355 kts 216°
2026-05-08 13:49 -30.16267 -67.36928 37170 ft 355 kts 216°
2026-05-08 13:49 -30.20440 -67.40000 37169 ft 355 kts 216°
2026-05-08 13:50 -30.24610 -67.43075 37170 ft 355 kts 216°
2026-05-08 13:50 -30.28778 -67.46161 37171 ft 356 kts 216°
2026-05-08 13:51 -30.32237 -67.48729 37170 ft 356 kts 216°
2026-05-08 13:51 -30.36407 -67.51821 37176 ft 355 kts 216°
2026-05-08 13:52 -30.40577 -67.54907 37130 ft 356 kts 216°
2026-05-08 13:52 -30.44744 -67.58003 37138 ft 356 kts 216°
2026-05-08 13:53 -30.48916 -67.61106 37143 ft 356 kts 216°
2026-05-08 13:53 -30.52545 -67.64923 37142 ft 354 kts 233°
2026-05-08 13:54 -30.55143 -67.69800 37146 ft 356 kts 236°
2026-05-08 13:54 -30.57717 -67.74701 37145 ft 355 kts 236°
2026-05-08 13:55 -30.60298 -67.79601 37146 ft 356 kts 236°
2026-05-08 13:56 -30.64142 -67.86930 37155 ft 356 kts 236°
2026-05-08 13:56 -30.66709 -67.91838 37154 ft 355 kts 236°
2026-05-08 13:57 -30.69277 -67.96754 37163 ft 356 kts 236°
2026-05-08 13:57 -30.71850 -68.01679 37156 ft 356 kts 236°
2026-05-08 13:58 -30.74429 -68.06614 37156 ft 357 kts 236°
2026-05-08 13:58 -30.76999 -68.11562 37156 ft 357 kts 236°
2026-05-08 13:59 -30.79571 -68.16510 37156 ft 357 kts 236°
2026-05-08 13:59 -30.82142 -68.21460 37116 ft 358 kts 235°
2026-05-08 14:00 -30.84718 -68.26423 37124 ft 359 kts 235°
2026-05-08 14:00 -30.87293 -68.31402 37132 ft 359 kts 235°
2026-05-08 14:01 -30.89876 -68.36394 37150 ft 360 kts 235°
2026-05-08 14:01 -30.92461 -68.41393 37156 ft 361 kts 235°
2026-05-08 14:02 -30.95048 -68.46402 37159 ft 361 kts 235°
2026-05-08 14:02 -30.97619 -68.51378 37163 ft 361 kts 235°
2026-05-08 14:03 -31.00202 -68.56392 37138 ft 360 kts 235°
2026-05-08 14:03 -31.02777 -68.61406 37152 ft 361 kts 235°
2026-05-08 14:04 -31.05363 -68.66435 37158 ft 361 kts 235°
2026-05-08 14:04 -31.07940 -68.71461 37166 ft 358 kts 234°
2026-05-08 14:05 -31.10471 -68.76417 37148 ft 355 kts 234°
2026-05-08 14:05 -31.12999 -68.81375 37146 ft 356 kts 234°
2026-05-08 14:06 -31.15535 -68.86338 37063 ft 356 kts 234°
2026-05-08 14:06 -31.18083 -68.91324 37101 ft 359 kts 234°
2026-05-08 14:07 -31.20637 -68.96327 37120 ft 358 kts 235°
2026-05-08 14:07 -31.23186 -69.01334 37090 ft 359 kts 235°
2026-05-08 14:08 -31.25731 -69.06346 37094 ft 358 kts 234°
2026-05-08 14:08 -31.28256 -69.11329 37094 ft 358 kts 234°
2026-05-08 14:09 -31.30795 -69.16337 37042 ft 358 kts 234°
2026-05-08 14:09 -31.33349 -69.21358 37043 ft 358 kts 234°
2026-05-08 14:10 -31.35880 -69.26364 37029 ft 357 kts 234°
2026-05-08 14:10 -31.38395 -69.31363 37032 ft 356 kts 234°
2026-05-08 14:11 -31.40901 -69.36347 37033 ft 355 kts 234°
2026-05-08 14:11 -31.43405 -69.41316 37007 ft 354 kts 234°
2026-05-08 14:12 -31.45906 -69.46281 37032 ft 353 kts 234°
2026-05-08 14:12 -31.48397 -69.51234 36992 ft 353 kts 234°
2026-05-08 14:13 -31.50895 -69.56214 36955 ft 357 kts 233°
2026-05-08 14:13 -31.53419 -69.61255 36971 ft 359 kts 234°
2026-05-08 14:14 -31.55942 -69.66310 37005 ft 359 kts 234°
2026-05-08 14:14 -31.58452 -69.71330 37014 ft 359 kts 234°
2026-05-08 14:15 -31.60981 -69.76390 36998 ft 358 kts 234°
2026-05-08 14:15 -31.63452 -69.81358 36989 ft 348 kts 234°
2026-05-08 14:16 -31.65916 -69.86317 36968 ft 349 kts 234°
2026-05-08 14:16 -31.68371 -69.91253 36997 ft 352 kts 235°
2026-05-08 14:17 -31.70858 -69.96224 37054 ft 353 kts 232°
2026-05-08 14:17 -31.72472 -69.98358 37060 ft 349 kts 218°
2026-05-08 14:17 -31.74565 -69.99810 37062 ft 351 kts 209°
2026-05-08 14:18 -31.78991 -70.02255 37067 ft 352 kts 208°
2026-05-08 14:18 -31.83436 -70.04681 37088 ft 352 kts 208°
2026-05-08 14:19 -31.87846 -70.07105 37125 ft 348 kts 208°
2026-05-08 14:19 -31.92240 -70.09542 37121 ft 349 kts 208°
2026-05-08 14:20 -31.96627 -70.11967 37119 ft 348 kts 209°
2026-05-08 14:20 -32.01020 -70.14400 37125 ft 350 kts 209°
2026-05-08 14:21 -32.05412 -70.16829 37110 ft 348 kts 208°
2026-05-08 14:21 -32.09812 -70.19257 37117 ft 350 kts 208°
2026-05-08 14:22 -32.14209 -70.21688 37155 ft 346 kts 209°
2026-05-08 14:22 -32.18528 -70.24091 37165 ft 347 kts 209°
2026-05-08 14:23 -32.22885 -70.26517 37152 ft 345 kts 209°
2026-05-08 14:23 -32.27232 -70.28944 37154 ft 345 kts 208°
2026-05-08 14:24 -32.31565 -70.31359 37148 ft 345 kts 208°
2026-05-08 14:24 -32.35910 -70.33781 37153 ft 347 kts 209°
2026-05-08 14:25 -32.40279 -70.36219 37163 ft 347 kts 209°
2026-05-08 14:25 -32.44646 -70.38657 37181 ft 347 kts 209°
2026-05-08 14:26 -32.49003 -70.41094 37180 ft 346 kts 209°
2026-05-08 14:26 -32.53354 -70.43530 37173 ft 345 kts 209°
2026-05-08 14:27 -32.57694 -70.45969 37158 ft 345 kts 209°
2026-05-08 14:27 -32.62040 -70.48408 37163 ft 346 kts 209°
2026-05-08 14:28 -32.66384 -70.50845 37189 ft 345 kts 208°
2026-05-08 14:28 -32.70718 -70.53285 37182 ft 344 kts 208°
2026-05-08 14:29 -32.75035 -70.55719 37127 ft 343 kts 208°
2026-05-08 14:29 -32.79350 -70.58152 37141 ft 343 kts 208°
2026-05-08 14:30 -32.83669 -70.60584 37152 ft 343 kts 208°
2026-05-08 14:30 -32.87982 -70.63020 37150 ft 343 kts 208°
2026-05-08 14:31 -32.92291 -70.65460 37163 ft 343 kts 208°
2026-05-08 14:31 -32.96603 -70.67902 37183 ft 343 kts 208°
2026-05-08 14:32 -33.03030 -70.71544 37184 ft 341 kts 208°
2026-05-08 14:32 -33.07314 -70.73978 37186 ft 341 kts 208°
2026-05-08 14:33 -33.10895 -70.76018 37190 ft 340 kts 208°
2026-05-08 14:33 -33.15170 -70.78448 37193 ft 340 kts 208°
2026-05-08 14:34 -33.19442 -70.80881 37194 ft 340 kts 208°
2026-05-08 14:34 -33.23716 -70.83310 37230 ft 340 kts 207°
2026-05-08 14:35 -33.27987 -70.85743 37220 ft 340 kts 208°
2026-05-08 14:35 -33.32248 -70.88186 37166 ft 340 kts 207°
2026-05-08 14:36 -33.36487 -70.90620 37174 ft 340 kts 207°
2026-05-08 14:36 -33.40784 -70.93085 37185 ft 340 kts 207°
2026-05-08 14:37 -33.45026 -70.95511 37189 ft 340 kts 207°
2026-05-08 14:37 -33.49296 -70.97956 37191 ft 340 kts 207°
2026-05-08 14:38 -33.53559 -71.00404 37219 ft 339 kts 207°
2026-05-08 14:38 -33.57815 -71.02845 37220 ft 339 kts 207°
2026-05-08 14:39 -33.62071 -71.05294 37213 ft 339 kts 208°
2026-05-08 14:39 -33.66325 -71.07757 37214 ft 340 kts 207°
2026-05-08 14:40 -33.70596 -71.10222 37213 ft 340 kts 207°
2026-05-08 14:40 -33.74854 -71.12683 37210 ft 340 kts 207°
2026-05-08 14:41 -33.79126 -71.15155 37240 ft 340 kts 207°
2026-05-08 14:41 -33.83397 -71.17623 37230 ft 340 kts 207°
2026-05-08 14:42 -33.87654 -71.20091 37225 ft 340 kts 207°
2026-05-08 14:42 -33.91907 -71.22557 37225 ft 339 kts 207°
2026-05-08 14:43 -33.96157 -71.25032 37222 ft 339 kts 207°
2026-05-08 14:43 -34.00404 -71.27505 37228 ft 339 kts 207°
2026-05-08 14:44 -34.04651 -71.29970 37275 ft 339 kts 207°
2026-05-08 14:44 -34.08880 -71.32431 37226 ft 336 kts 207°
2026-05-08 14:45 -34.13090 -71.34893 37223 ft 336 kts 207°
2026-05-08 14:45 -34.17303 -71.37358 37222 ft 337 kts 207°
2026-05-08 14:46 -34.21493 -71.39815 37239 ft 337 kts 207°
2026-05-08 14:46 -34.25717 -71.42286 37240 ft 337 kts 207°
2026-05-08 14:47 -34.29935 -71.44755 37239 ft 337 kts 207°
2026-05-08 14:47 -34.34149 -71.47229 37250 ft 335 kts 206°
2026-05-08 14:48 -34.38341 -71.49694 37244 ft 334 kts 206°
2026-05-08 14:48 -34.42532 -71.52160 37243 ft 335 kts 206°
2026-05-08 14:49 -34.46723 -71.54629 37245 ft 335 kts 206°
2026-05-08 14:49 -34.50914 -71.57101 37218 ft 335 kts 206°
2026-05-08 14:50 -34.55107 -71.59575 37233 ft 335 kts 206°
2026-05-08 14:50 -34.59281 -71.62071 37282 ft 334 kts 207°
2026-05-08 14:51 -34.63385 -71.64638 37248 ft 330 kts 207°
2026-05-08 14:51 -34.67457 -71.67201 37246 ft 330 kts 207°
2026-05-08 14:52 -34.73567 -71.71020 37250 ft 330 kts 207°
2026-05-08 14:53 -34.77652 -71.73573 37253 ft 330 kts 207°
2026-05-08 14:53 -34.81739 -71.76134 37253 ft 330 kts 207°
2026-05-08 14:54 -34.85827 -71.78697 37251 ft 331 kts 207°
2026-05-08 14:54 -34.89896 -71.81252 37245 ft 327 kts 206°
2026-05-08 14:55 -34.93928 -71.83784 37238 ft 326 kts 206°
2026-05-08 14:55 -34.97968 -71.86319 37238 ft 327 kts 206°
2026-05-08 14:56 -35.02007 -71.88860 37241 ft 327 kts 206°
2026-05-08 14:56 -35.06055 -71.91404 37179 ft 327 kts 206°
2026-05-08 14:57 -35.10083 -71.93940 37217 ft 329 kts 206°
2026-05-08 14:57 -35.14144 -71.96506 37227 ft 329 kts 206°
2026-05-08 14:58 -35.18205 -71.99083 37231 ft 329 kts 206°
2026-05-08 14:58 -35.22270 -72.01655 37236 ft 329 kts 206°
2026-05-08 14:59 -35.26334 -72.04219 37236 ft 329 kts 206°
2026-05-08 14:59 -35.32426 -72.08080 37237 ft 328 kts 206°
2026-05-08 15:00 -35.36481 -72.10667 37237 ft 329 kts 206°
2026-05-08 15:00 -35.40540 -72.13253 36934 ft 328 kts 206°
2026-05-08 15:01 -35.42563 -72.14539 36671 ft 328 kts 206°
2026-05-08 15:01 -35.44587 -72.15826 36416 ft 328 kts 206°
2026-05-08 15:01 -35.46611 -72.17116 36165 ft 328 kts 206°
2026-05-08 15:01 -35.48612 -72.18392 35880 ft 328 kts 205°
2026-05-08 15:02 -35.50633 -72.19683 35289 ft 326 kts 205°
2026-05-08 15:02 -35.52643 -72.20966 34655 ft 326 kts 205°
2026-05-08 15:02 -35.54664 -72.22256 33994 ft 329 kts 205°
2026-05-08 15:02 -35.56696 -72.23576 33281 ft 332 kts 205°
2026-05-08 15:03 -35.58748 -72.24920 32583 ft 335 kts 205°
2026-05-08 15:03 -35.60820 -72.26283 31844 ft 339 kts 205°
2026-05-08 15:03 -35.62912 -72.27662 31179 ft 343 kts 205°
2026-05-08 15:03 -35.65029 -72.29059 30533 ft 347 kts 204°
2026-05-08 15:04 -35.67174 -72.30473 29831 ft 351 kts 204°
2026-05-08 15:04 -35.69335 -72.31901 29090 ft 355 kts 204°
2026-05-08 15:04 -35.71520 -72.33347 28364 ft 359 kts 205°
2026-05-08 15:04 -35.73729 -72.34807 27664 ft 362 kts 205°
2026-05-08 15:05 -35.75964 -72.36281 26979 ft 366 kts 205°
2026-05-08 15:05 -35.78218 -72.37767 26311 ft 369 kts 205°
2026-05-08 15:05 -35.80493 -72.39270 25653 ft 373 kts 205°
2026-05-08 15:05 -35.82760 -72.40769 25026 ft 376 kts 205°
2026-05-08 15:06 -35.85077 -72.42305 24405 ft 380 kts 205°
2026-05-08 15:06 -35.87412 -72.43856 23792 ft 381 kts 206°
2026-05-08 15:06 -35.89730 -72.45396 23072 ft 378 kts 206°
2026-05-08 15:06 -35.92043 -72.46935 22357 ft 375 kts 206°
2026-05-08 15:07 -35.94330 -72.48459 21688 ft 372 kts 206°
2026-05-08 15:07 -35.96602 -72.49971 21007 ft 368 kts 206°
2026-05-08 15:07 -35.98846 -72.51463 20342 ft 365 kts 206°
2026-05-08 15:07 -36.01066 -72.52939 19692 ft 361 kts 206°
2026-05-08 15:08 -36.03270 -72.54404 19061 ft 359 kts 207°
2026-05-08 15:08 -36.04723 -72.55372 18648 ft 357 kts 207°
2026-05-08 15:08 -36.07637 -72.57314 17710 ft 355 kts 207°
2026-05-08 15:08 -36.09808 -72.58760 17010 ft 354 kts 207°
2026-05-08 15:09 -36.11972 -72.60205 16323 ft 354 kts 207°
2026-05-08 15:09 -36.14139 -72.61650 15618 ft 354 kts 206°
2026-05-08 15:09 -36.16306 -72.63096 14956 ft 354 kts 206°
2026-05-08 15:09 -36.18470 -72.64544 14324 ft 353 kts 207°
2026-05-08 15:10 -36.20631 -72.65990 13663 ft 353 kts 206°
2026-05-08 15:10 -36.22789 -72.67433 12956 ft 352 kts 206°
2026-05-08 15:10 -36.24940 -72.68873 12264 ft 351 kts 206°
2026-05-08 15:10 -36.27088 -72.70314 11594 ft 350 kts 206°
2026-05-08 15:11 -36.29203 -72.71736 11295 ft 350 kts 206°
2026-05-08 15:11 -36.31349 -72.73181 11191 ft 351 kts 206°
2026-05-08 15:11 -36.33500 -72.74626 11210 ft 352 kts 206°
2026-05-08 15:11 -36.35659 -72.76073 11212 ft 353 kts 206°
2026-05-08 15:12 -36.37818 -72.77518 11215 ft 353 kts 206°
2026-05-08 15:12 -36.39976 -72.78968 11214 ft 353 kts 206°
2026-05-08 15:12 -36.42130 -72.80424 11216 ft 353 kts 207°
2026-05-08 15:12 -36.44286 -72.81882 11212 ft 353 kts 206°
2026-05-08 15:13 -36.46438 -72.83335 11228 ft 352 kts 206°
2026-05-08 15:13 -36.48591 -72.84789 11218 ft 352 kts 206°
2026-05-08 15:13 -36.50745 -72.86242 11216 ft 352 kts 206°
2026-05-08 15:13 -36.52841 -72.87658 11214 ft 331 kts 206°
2026-05-08 15:14 -36.54792 -72.88981 11214 ft 309 kts 206°
2026-05-08 15:14 -36.56617 -72.90221 11206 ft 289 kts 206°
2026-05-08 15:14 -36.58331 -72.91386 11201 ft 272 kts 206°
2026-05-08 15:14 -36.59944 -72.92481 11198 ft 257 kts 206°
2026-05-08 15:15 -36.61486 -72.93525 11198 ft 250 kts 206°
2026-05-08 15:15 -36.63010 -72.94553 11198 ft 248 kts 206°
2026-05-08 15:15 -36.64527 -72.95573 11185 ft 247 kts 206°
2026-05-08 15:15 -36.66043 -72.96596 11194 ft 247 kts 206°
2026-05-08 15:16 -36.67556 -72.97618 11193 ft 248 kts 206°
2026-05-08 15:16 -36.69055 -72.98634 11191 ft 248 kts 206°
2026-05-08 15:16 -36.70566 -72.99661 11192 ft 247 kts 206°
2026-05-08 15:16 -36.72076 -73.00686 11194 ft 247 kts 206°
2026-05-08 15:17 -36.73587 -73.01711 11199 ft 248 kts 206°
2026-05-08 15:17 -36.74612 -73.02405 11200 ft 248 kts 206°
2026-05-08 15:17 -36.76128 -73.03435 11198 ft 248 kts 206°
2026-05-08 15:17 -36.77644 -73.04466 11195 ft 248 kts 206°
2026-05-08 15:18 -36.79159 -73.05498 11193 ft 248 kts 206°
2026-05-08 15:18 -36.80675 -73.06531 11194 ft 248 kts 206°
2026-05-08 15:18 -36.82189 -73.07565 11189 ft 246 kts 206°
2026-05-08 15:18 -36.83642 -73.08559 11189 ft 231 kts 206°
2026-05-08 15:19 -36.85008 -73.09492 11189 ft 216 kts 206°
2026-05-08 15:19 -36.86285 -73.10366 11193 ft 203 kts 206°
2026-05-08 15:19 -36.87505 -73.11200 11191 ft 198 kts 205°
2026-05-08 15:19 -36.88693 -73.12013 11193 ft 197 kts 205°
2026-05-08 15:20 -36.89895 -73.12835 11220 ft 197 kts 205°
2026-05-08 15:20 -36.91099 -73.13657 11214 ft 197 kts 205°
2026-05-08 15:20 -36.92302 -73.14480 11212 ft 197 kts 205°
2026-05-08 15:20 -36.93505 -73.15303 11214 ft 197 kts 205°
2026-05-08 15:21 -36.94707 -73.16125 11212 ft 197 kts 205°
2026-05-08 15:21 -36.95909 -73.16947 11215 ft 197 kts 205°
2026-05-08 15:21 -36.97113 -73.17771 11213 ft 197 kts 205°
2026-05-08 15:21 -36.98314 -73.18598 11224 ft 198 kts 207°
2026-05-08 15:22 -36.99264 -73.19859 11215 ft 210 kts 237°
2026-05-08 15:22 -36.99431 -73.21753 11212 ft 238 kts 273°
2026-05-08 15:22 -36.98522 -73.23605 11212 ft 269 kts 312°
2026-05-08 15:22 -36.96786 -73.24651 11212 ft 284 kts 338°
2026-05-08 15:23 -36.94914 -73.25432 10739 ft 285 kts 334°
2026-05-08 15:23 -36.93023 -73.26311 10032 ft 294 kts 334°
2026-05-08 15:23 -36.91094 -73.27244 9262 ft 300 kts 334°
2026-05-08 15:23 -36.89295 -73.28508 8511 ft 294 kts 312°
2026-05-08 15:24 -36.88113 -73.30489 8002 ft 275 kts 289°
2026-05-08 15:24 -36.87672 -73.32672 7698 ft 248 kts 264°
2026-05-08 15:24 -36.87961 -73.34659 7404 ft 222 kts 238°
2026-05-08 15:24 -36.88872 -73.36099 7109 ft 206 kts 214°
2026-05-08 15:25 -36.90139 -73.36881 6817 ft 203 kts 191°
2026-05-08 15:25 -36.91548 -73.36912 6446 ft 205 kts 168°
2026-05-08 15:25 -36.92850 -73.36161 6031 ft 212 kts 144°
2026-05-08 15:25 -36.93787 -73.34712 5620 ft 221 kts 118°
2026-05-08 15:26 -36.94310 -73.32878 5212 ft 226 kts 112°
2026-05-08 15:26 -36.94819 -73.31006 4798 ft 228 kts 112°
2026-05-08 15:26 -36.95329 -73.29142 4393 ft 231 kts 112°
2026-05-08 15:26 -36.95850 -73.27234 3983 ft 233 kts 112°
2026-05-08 15:27 -36.96376 -73.25310 3594 ft 234 kts 112°
2026-05-08 15:27 -36.96886 -73.23429 3497 ft 221 kts 112°
2026-05-08 15:27 -36.97176 -73.21568 3502 ft 220 kts 94°
2026-05-08 15:27 -36.96945 -73.19670 3505 ft 224 kts 73°
2026-05-08 15:28 -36.96187 -73.17962 3505 ft 227 kts 51°
2026-05-08 15:28 -36.94977 -73.16690 3505 ft 229 kts 29°
2026-05-08 15:28 -36.93532 -73.15826 3363 ft 230 kts 25°
2026-05-08 15:28 -36.92086 -73.14981 3096 ft 228 kts 25°
2026-05-08 15:29 -36.90657 -73.14144 2801 ft 225 kts 25°
2026-05-08 15:29 -36.89257 -73.13324 2489 ft 218 kts 25°
2026-05-08 15:29 -36.87902 -73.12530 2182 ft 212 kts 24°
2026-05-08 15:29 -36.86577 -73.11755 1899 ft 207 kts 24°
2026-05-08 15:30 -36.85314 -73.11016 1607 ft 195 kts 24°
2026-05-08 15:30 -36.84139 -73.10328 1351 ft 179 kts 24°
2026-05-08 15:30 -36.83056 -73.09695 1118 ft 165 kts 24°
2026-05-08 15:30 -36.82082 -73.09125 902 ft 146 kts 24°
2026-05-08 15:31 -36.81199 -73.08609 712 ft 137 kts 25°
2026-05-08 15:31 -36.80359 -73.08122 532 ft 133 kts 25°
2026-05-08 15:31 -36.79517 -73.07633 329 ft 133 kts 26°
2026-05-08 15:31 -36.78665 -73.07133 158 ft 134 kts 26°
2026-05-08 15:32 -36.77842 -73.06656 31 ft 123 kts 26°
2026-05-08 15:32 -36.77194 -73.06277 22 ft 79 kts 25°
2026-05-08 15:32 -36.76852 -73.06079 20 ft 30 kts 25°
2026-05-08 15:32 -36.76664 -73.05972 20 ft 29 kts 25°
2026-05-08 15:33 -36.76483 -73.05867 20 ft 28 kts 25°
2026-05-08 15:33 -36.76332 -73.05769 17 ft 15 kts 39°
2026-05-08 15:33 -36.76339 -73.05653 18 ft 15 kts 116°
2026-05-08 15:33 -36.76417 -73.05583 17 ft 15 kts 188°
2026-05-08 15:34 -36.76513 -73.05633 20 ft 15 kts 206°
2026-05-08 15:34 -36.76606 -73.05689 19 ft 15 kts 205°
2026-05-08 15:34 -36.76701 -73.05746 20 ft 15 kts 205°
2026-05-08 15:34 -36.76798 -73.05802 20 ft 15 kts 203°
2026-05-08 15:35 -36.76896 -73.05855 21 ft 15 kts 205°
2026-05-08 15:35 -36.76993 -73.05912 23 ft 16 kts 205°
2026-05-08 15:35 -36.77091 -73.05972 22 ft 16 kts 206°
2026-05-08 15:35 -36.77192 -73.06030 23 ft 16 kts 204°
2026-05-08 15:36 -36.77293 -73.06087 24 ft 16 kts 205°
2026-05-08 15:36 -36.77393 -73.06145 25 ft 16 kts 205°
2026-05-08 15:36 -36.77493 -73.06203 28 ft 16 kts 205°
2026-05-08 15:36 -36.77579 -73.06225 26 ft 11 kts 133°
2026-05-08 15:37 -36.77617 -73.06140 26 ft 9 kts 120°
2026-05-08 15:37 -36.77644 -73.06080 26 ft 0 kts 120°